,,,PA_Meas_PMT16A,,PR_Meas_QMR101_102,,RH_Meas_QMH101,,SR_Meas_QMS101,,TA_Meas_QMH101,,GenWind,,GenWind,
date,time,status,PA,status,PR,status,RH,status,SR,status,TA,status,DirAvg,status,SpdAvg,
2010-12-28, 00:00:05,VALID,1002.42,VALID,0,INVALID,163.731,VALID,0.100563,VALID,23.8362,VALID,3,VALID,0.919531,
2010-12-28, 00:01:05,VALID,1002.4,VALID,0,INVALID,163.731,VALID,0.100563,VALID,23.8769,VALID,357,VALID,0.819141,
2010-12-28, 00:02:05,VALID,1002.39,VALID,0,INVALID,163.731,VALID,0.100563,VALID,23.8362,VALID,357,VALID,0.682031,
2010-12-28, 00:03:05,VALID,1002.39,VALID,0,INVALID,163.754,VALID,0.100563,VALID,23.8185,VALID,357,VALID,0.69375,
2010-12-28, 00:04:05,VALID,1002.36,VALID,0,INVALID,163.716,VALID,0.100563,VALID,23.7973,VALID,357,VALID,0.818359,
2010-12-28, 00:05:05,VALID,1002.37,VALID,0,INVALID,163.731,VALID,0.100563,VALID,23.7973,VALID,357,VALID,0.628516,
2010-12-28, 00:06:05,VALID,1002.38,VALID,0,INVALID,163.716,VALID,0.100563,VALID,23.7973,VALID,357,VALID,0.475,
2010-12-28, 00:07:05,VALID,1002.35,VALID,0,INVALID,163.739,VALID,0.100563,VALID,23.7973,VALID,356,VALID,0.441797,
2010-12-28, 00:08:05,VALID,1002.37,VALID,0,INVALID,163.739,VALID,0.100563,VALID,23.7778,VALID,356,VALID,0.564062,
2010-12-28, 00:09:05,VALID,1002.34,VALID,0,INVALID,163.723,VALID,0.100563,VALID,23.7778,VALID,356,VALID,0.277734,
2010-12-28, 00:10:05,VALID,1002.34,VALID,0,INVALID,163.762,VALID,0,VALID,23.7796,VALID,356,VALID,0.631641,
2010-12-28, 00:11:05,VALID,1002.3,VALID,0,INVALID,163.746,VALID,0,VALID,23.8009,VALID,350,VALID,0.610937,
2010-12-28, 00:12:05,VALID,1002.29,VALID,0,INVALID,163.754,VALID,0,VALID,23.7796,VALID,351,VALID,0.654297,
2010-12-28, 00:13:05,VALID,1002.29,VALID,0,INVALID,163.754,VALID,0,VALID,23.7778,VALID,351,VALID,0.442578,
2010-12-28, 00:14:05,VALID,1002.24,VALID,0,INVALID,163.708,VALID,0,VALID,23.8593,VALID,351,VALID,0.447266,
2010-12-28, 00:15:05,VALID,1002.26,VALID,0,INVALID,163.739,VALID,0,VALID,23.8787,VALID,351,VALID,0.435937,
2010-12-28, 00:16:05,VALID,1002.22,VALID,0,INVALID,163.746,VALID,0,VALID,23.8593,VALID,351,VALID,0.496094,
2010-12-28, 00:17:05,VALID,1002.19,VALID,0,INVALID,163.731,VALID,0,VALID,23.8593,VALID,351,VALID,0.487109,
2010-12-28, 00:18:05,VALID,1002.17,VALID,0,INVALID,163.739,VALID,0,VALID,23.8398,VALID,351,VALID,0.549219,
2010-12-28, 00:19:05,VALID,1002.17,VALID,0,INVALID,163.746,VALID,0,VALID,23.8185,VALID,351,VALID,0.514453,
2010-12-28, 00:20:05,VALID,1002.14,VALID,0,INVALID,163.739,VALID,0,VALID,23.8593,VALID,351,VALID,0.553906,
2010-12-28, 00:21:05,VALID,1002.14,VALID,0,INVALID,163.739,VALID,0,VALID,23.8787,VALID,355,VALID,0.598828,
2010-12-28, 00:22:05,VALID,1002.15,VALID,0,INVALID,163.731,VALID,0,VALID,23.8185,VALID,355,VALID,0.570313,
2010-12-28, 00:23:05,VALID,1002.17,VALID,0,INVALID,163.731,VALID,0,VALID,23.8398,VALID,355,VALID,0.499609,
2010-12-28, 00:24:05,VALID,1002.16,VALID,0,INVALID,163.701,VALID,0,VALID,23.8203,VALID,355,VALID,0.523828,
2010-12-28, 00:25:05,VALID,1002.15,VALID,0,INVALID,163.754,VALID,0.100563,VALID,23.7973,VALID,355,VALID,0.676172,
2010-12-28, 00:26:05,VALID,1002.15,VALID,0,INVALID,163.739,VALID,0,VALID,23.8167,VALID,355,VALID,0.608594,
2010-12-28, 00:27:05,VALID,1002.16,VALID,0,INVALID,163.731,VALID,0.100563,VALID,23.8185,VALID,355,VALID,0.509766,
2010-12-28, 00:28:05,VALID,1002.09,VALID,0,INVALID,163.723,VALID,0.100563,VALID,23.7991,VALID,355,VALID,0.566797,
2010-12-28, 00:29:05,VALID,1002.12,VALID,0,INVALID,163.731,VALID,0.100563,VALID,23.7778,VALID,355,VALID,0.557031,
2010-12-28, 00:30:05,VALID,1002.11,VALID,0,INVALID,163.723,VALID,0.100563,VALID,23.7778,VALID,355,VALID,0.329688,
2010-12-28, 00:31:05,VALID,1002.09,VALID,0,INVALID,163.754,VALID,0.100563,VALID,23.7796,VALID,355,VALID,0.438672,
2010-12-28, 00:32:05,VALID,1002.07,VALID,0,INVALID,163.723,VALID,0.100563,VALID,23.7583,VALID,355,VALID,0.580078,
2010-12-28, 00:33:05,VALID,1002.05,VALID,0,INVALID,163.754,VALID,0.100563,VALID,23.7796,VALID,355,VALID,0.607031,
2010-12-28, 00:34:05,VALID,1002.06,VALID,0,INVALID,163.731,VALID,0.100563,VALID,23.7796,VALID,358,VALID,0.465234,
2010-12-28, 00:35:05,VALID,1002.03,VALID,0,INVALID,163.739,VALID,0.100563,VALID,23.7778,VALID,357,VALID,0.649609,
2010-12-28, 00:36:05,VALID,1002.02,VALID,0,INVALID,163.723,VALID,0.100563,VALID,23.7778,VALID,357,VALID,0.510156,
2010-12-28, 00:37:05,VALID,1002.01,VALID,0,INVALID,163.746,VALID,0.100563,VALID,23.7778,VALID,357,VALID,0.692578,
2010-12-28, 00:38:05,VALID,1001.99,VALID,0,INVALID,163.731,VALID,0.100563,VALID,23.7778,VALID,353,VALID,0.528906,
2010-12-28, 00:39:05,VALID,1002.01,VALID,0,INVALID,163.739,VALID,0.100563,VALID,23.7778,VALID,353,VALID,0.48125,
2010-12-28, 00:40:05,VALID,1001.98,VALID,0,INVALID,163.746,VALID,0,VALID,23.8185,VALID,354,VALID,0.188672,
2010-12-28, 00:41:05,VALID,1001.93,VALID,0,INVALID,163.746,VALID,0,VALID,23.8185,VALID,354,VALID,0.399609,
2010-12-28, 00:42:05,VALID,1001.94,VALID,0,INVALID,163.716,VALID,0.100563,VALID,23.7796,VALID,352,VALID,0.597656,
2010-12-28, 00:43:05,VALID,1001.92,VALID,0,INVALID,163.746,VALID,0.100563,VALID,23.7796,VALID,7,VALID,0.633594,
2010-12-28, 00:44:05,VALID,1001.92,VALID,0,INVALID,163.739,VALID,0.100563,VALID,23.8185,VALID,343,VALID,0.728516,
2010-12-28, 00:45:05,VALID,1001.92,VALID,0,INVALID,163.731,VALID,0.100563,VALID,23.8556,VALID,343,VALID,0.497266,
2010-12-28, 00:46:05,VALID,1001.89,VALID,0,INVALID,163.731,VALID,0.100563,VALID,23.8751,VALID,343,VALID,0.493359,
2010-12-28, 00:47:05,VALID,1001.89,VALID,0,INVALID,163.731,VALID,0,VALID,23.8769,VALID,351,VALID,0.713672,
2010-12-28, 00:48:05,VALID,1001.89,VALID,0,INVALID,163.731,VALID,0,VALID,23.8964,VALID,342,VALID,0.495703,
2010-12-28, 00:49:05,VALID,1001.87,VALID,0,INVALID,163.769,VALID,0,VALID,23.8964,VALID,344,VALID,0.579687,
2010-12-28, 00:50:05,VALID,1001.88,VALID,0,INVALID,163.731,VALID,0,VALID,23.8751,VALID,344,VALID,0.449219,
2010-12-28, 00:51:05,VALID,1001.88,VALID,0,INVALID,163.769,VALID,0.100563,VALID,23.9353,VALID,344,VALID,0.433203,
2010-12-28, 00:52:05,VALID,1001.86,VALID,0,INVALID,163.708,VALID,0,VALID,23.9566,VALID,344,VALID,0.113281,
2010-12-28, 00:53:05,VALID,1001.85,VALID,0,INVALID,163.701,VALID,0,VALID,23.9548,VALID,344,VALID,0.00820312,
2010-12-28, 00:54:05,VALID,1001.85,VALID,0,INVALID,163.708,VALID,0,VALID,23.9548,VALID,346,VALID,0.746094,
2010-12-28, 00:55:05,VALID,1001.82,VALID,0,INVALID,163.716,VALID,0.100563,VALID,23.9548,VALID,357,VALID,0.937109,
2010-12-28, 00:56:05,VALID,1001.81,VALID,0,INVALID,163.731,VALID,0,VALID,23.914,VALID,356,VALID,1.08789,
2010-12-28, 00:57:05,VALID,1001.81,VALID,0,INVALID,163.746,VALID,0.100563,VALID,23.9742,VALID,359,VALID,0.830078,
2010-12-28, 00:58:05,VALID,1001.81,VALID,0,INVALID,163.731,VALID,0.100563,VALID,24.0326,VALID,354,VALID,0.651563,
2010-12-28, 00:59:05,VALID,1001.8,VALID,0,INVALID,163.701,VALID,0.100563,VALID,24.0716,VALID,339,VALID,0.344531,
2010-12-28, 01:00:05,VALID,1001.8,VALID,0,INVALID,163.739,VALID,0.100563,VALID,24.0326,VALID,344,VALID,0.54375,
2010-12-28, 01:01:05,VALID,1001.78,VALID,0,INVALID,163.708,VALID,0.100563,VALID,24.0114,VALID,344,VALID,0.407422,
2010-12-28, 01:02:05,VALID,1001.75,VALID,0,INVALID,163.731,VALID,0.100563,VALID,24.0308,VALID,345,VALID,0.618359,
2010-12-28, 01:03:05,VALID,1001.76,VALID,0,INVALID,163.731,VALID,0,VALID,24.0521,VALID,358,VALID,0.596875,
2010-12-28, 01:04:05,VALID,1001.75,VALID,0,INVALID,163.731,VALID,0,VALID,24.0503,VALID,358,VALID,0.559375,
2010-12-28, 01:05:05,VALID,1001.69,VALID,0,INVALID,163.731,VALID,0.100563,VALID,24.0521,VALID,358,VALID,0.395312,
2010-12-28, 01:06:05,VALID,1001.72,VALID,0,INVALID,163.739,VALID,0.100563,VALID,24.0326,VALID,358,VALID,0.5,
2010-12-28, 01:07:05,VALID,1001.72,VALID,0,INVALID,163.708,VALID,0.100563,VALID,24.0114,VALID,358,VALID,0.639453,
2010-12-28, 01:08:05,VALID,1001.71,VALID,0,INVALID,163.723,VALID,0.100563,VALID,23.9919,VALID,358,VALID,0.564062,
2010-12-28, 01:09:05,VALID,1001.69,VALID,0,INVALID,163.693,VALID,0.100563,VALID,23.9919,VALID,358,VALID,0.264062,
2010-12-28, 01:10:05,VALID,1001.67,VALID,0,INVALID,163.708,VALID,0.100563,VALID,24.0326,VALID,358,VALID,0.322656,
2010-12-28, 01:11:05,VALID,1001.66,VALID,0,INVALID,163.723,VALID,0.100563,VALID,23.9724,VALID,358,VALID,0.282031,
2010-12-28, 01:12:05,VALID,1001.68,VALID,0,INVALID,163.716,VALID,0.100563,VALID,23.9724,VALID,358,VALID,0.505078,
2010-12-28, 01:13:05,VALID,1001.66,VALID,0,INVALID,163.708,VALID,0.100563,VALID,23.953,VALID,356,VALID,0.632422,
2010-12-28, 01:14:05,VALID,1001.65,VALID,0,INVALID,163.739,VALID,0.100563,VALID,23.953,VALID,356,VALID,0.650391,
2010-12-28, 01:15:05,VALID,1001.64,VALID,0,INVALID,163.739,VALID,0.100563,VALID,23.953,VALID,356,VALID,0.614453,
2010-12-28, 01:16:05,VALID,1001.63,VALID,0,INVALID,163.716,VALID,0.100563,VALID,23.9353,VALID,356,VALID,0.419141,
2010-12-28, 01:17:05,VALID,1001.64,VALID,0,INVALID,163.716,VALID,0.100563,VALID,23.8946,VALID,356,VALID,0.334375,
2010-12-28, 01:18:05,VALID,1001.58,VALID,0,INVALID,163.746,VALID,0.100563,VALID,23.9159,VALID,356,VALID,0.384766,
2010-12-28, 01:19:05,VALID,1001.55,VALID,0,INVALID,163.754,VALID,0.100563,VALID,23.8769,VALID,356,VALID,0.476953,
2010-12-28, 01:20:05,VALID,1001.55,VALID,0,INVALID,163.731,VALID,0.100563,VALID,23.8362,VALID,356,VALID,0.563281,
2010-12-28, 01:21:05,VALID,1001.5,VALID,0,INVALID,163.754,VALID,0.100563,VALID,23.8575,VALID,356,VALID,0.725391,
2010-12-28, 01:22:05,VALID,1001.49,VALID,0,INVALID,163.731,VALID,0,VALID,23.8593,VALID,356,VALID,0.531641,
2010-12-28, 01:23:05,VALID,1001.49,VALID,0,INVALID,163.754,VALID,0.100563,VALID,23.8362,VALID,356,VALID,0.403125,
2010-12-28, 01:24:05,VALID,1001.45,VALID,0,INVALID,163.739,VALID,0,VALID,23.8362,VALID,356,VALID,0.688281,
2010-12-28, 01:25:05,VALID,1001.46,VALID,0,INVALID,163.716,VALID,0,VALID,23.838,VALID,356,VALID,0.341406,
2010-12-28, 01:26:05,VALID,1001.44,VALID,0,INVALID,163.716,VALID,0,VALID,23.8398,VALID,356,VALID,0.542578,
2010-12-28, 01:27:05,VALID,1001.46,VALID,0,INVALID,163.739,VALID,0,VALID,23.7991,VALID,356,VALID,0.437109,
2010-12-28, 01:28:05,VALID,1001.43,VALID,0,INVALID,163.746,VALID,0,VALID,23.8009,VALID,356,VALID,0.575391,
2010-12-28, 01:29:05,VALID,1001.4,VALID,0,INVALID,163.754,VALID,0,VALID,23.7619,VALID,356,VALID,0.305859,
2010-12-28, 01:30:05,VALID,1001.39,VALID,0,INVALID,163.739,VALID,0,VALID,23.7425,VALID,356,VALID,0.645703,
2010-12-28, 01:31:05,VALID,1001.35,VALID,0,INVALID,163.739,VALID,0,VALID,23.7619,VALID,356,VALID,0.633984,
2010-12-28, 01:32:05,VALID,1001.36,VALID,0,INVALID,163.739,VALID,0,VALID,23.7425,VALID,356,VALID,0.526953,
2010-12-28, 01:33:05,VALID,1001.34,VALID,0,INVALID,163.769,VALID,0,VALID,23.7035,VALID,356,VALID,0.489844,
2010-12-28, 01:34:05,VALID,1001.32,VALID,0,INVALID,163.746,VALID,0,VALID,23.723,VALID,356,VALID,0.701172,
2010-12-28, 01:35:05,VALID,1001.31,VALID,0,INVALID,163.739,VALID,0,VALID,23.6841,VALID,356,VALID,0.647656,
2010-12-28, 01:36:05,VALID,1001.33,VALID,0,INVALID,163.746,VALID,0,VALID,23.6434,VALID,350,VALID,0.629687,
2010-12-28, 01:37:04,VALID,1001.3,VALID,0,INVALID,163.731,VALID,0,VALID,23.6434,VALID,349,VALID,0.616797,
2010-12-28, 01:38:04,VALID,1001.31,VALID,0,INVALID,163.746,VALID,0,VALID,23.6434,VALID,349,VALID,0.651953,
2010-12-28, 01:39:04,VALID,1001.31,VALID,0,INVALID,163.731,VALID,0,VALID,23.6239,VALID,349,VALID,0.632031,
2010-12-28, 01:40:04,VALID,1001.28,VALID,0,INVALID,163.754,VALID,0,VALID,23.6452,VALID,351,VALID,0.581641,
2010-12-28, 01:41:04,VALID,1001.3,VALID,0,INVALID,163.762,VALID,0,VALID,23.6239,VALID,351,VALID,0.617188,
2010-12-28, 01:42:04,VALID,1001.29,VALID,0,INVALID,163.746,VALID,0,VALID,23.6841,VALID,352,VALID,0.528906,
2010-12-28, 01:43:04,VALID,1001.29,VALID,0,INVALID,163.746,VALID,0,VALID,23.6646,VALID,352,VALID,0.4,
2010-12-28, 01:44:04,VALID,1001.26,VALID,0,INVALID,163.723,VALID,0,VALID,23.723,VALID,352,VALID,0.516797,
2010-12-28, 01:45:04,VALID,1001.26,VALID,0,INVALID,163.731,VALID,0,VALID,23.7017,VALID,352,VALID,0.544922,
2010-12-28, 01:46:04,VALID,1001.26,VALID,0,INVALID,163.754,VALID,0,VALID,23.7407,VALID,352,VALID,0.333203,
2010-12-28, 01:47:04,VALID,1001.25,VALID,0,INVALID,163.723,VALID,0,VALID,23.7796,VALID,352,VALID,0.464844,
2010-12-28, 01:48:04,VALID,1001.25,VALID,0,INVALID,163.739,VALID,0,VALID,23.8185,VALID,352,VALID,0.440625,
2010-12-28, 01:49:04,VALID,1001.19,VALID,0,INVALID,163.723,VALID,0,VALID,23.8398,VALID,352,VALID,0.342969,
2010-12-28, 01:50:04,VALID,1001.2,VALID,0,INVALID,163.731,VALID,0,VALID,23.8575,VALID,351,VALID,0.259766,
2010-12-28, 01:51:04,VALID,1001.24,VALID,0,INVALID,163.739,VALID,0,VALID,23.8575,VALID,351,VALID,0.697656,
2010-12-28, 01:52:04,VALID,1001.23,VALID,0,INVALID,163.708,VALID,0,VALID,23.838,VALID,360,VALID,0.723047,
2010-12-28, 01:53:04,VALID,1001.21,VALID,0,INVALID,163.731,VALID,0,VALID,23.8787,VALID,4,VALID,0.783984,
2010-12-28, 01:54:04,VALID,1001.24,VALID,0,INVALID,163.723,VALID,0,VALID,23.8964,VALID,4,VALID,0.703516,
2010-12-28, 01:55:04,VALID,1001.2,VALID,0,INVALID,163.739,VALID,0,VALID,23.8964,VALID,4,VALID,0.494922,
2010-12-28, 01:56:04,VALID,1001.18,VALID,0,INVALID,163.739,VALID,0,VALID,23.8982,VALID,4,VALID,0.218359,
2010-12-28, 01:57:04,VALID,1001.19,VALID,0,INVALID,163.746,VALID,0,VALID,23.8964,VALID,2,VALID,0.383984,
2010-12-28, 01:58:04,VALID,1001.19,VALID,0,INVALID,163.716,VALID,0,VALID,23.8982,VALID,2,VALID,0.534766,
2010-12-28, 01:59:04,VALID,1001.18,VALID,0,INVALID,163.716,VALID,0,VALID,23.8787,VALID,2,VALID,0.590625,
2010-12-28, 02:00:04,VALID,1001.18,VALID,0,INVALID,163.723,VALID,0,VALID,23.8575,VALID,359,VALID,0.553125,
2010-12-28, 02:01:04,VALID,1001.18,VALID,0,INVALID,163.731,VALID,0,VALID,23.8769,VALID,302,VALID,0.317969,
2010-12-28, 02:02:04,VALID,1001.19,VALID,0,INVALID,163.739,VALID,0,VALID,23.8787,VALID,358,VALID,0.650391,
2010-12-28, 02:03:04,VALID,1001.2,VALID,0,INVALID,163.731,VALID,0,VALID,23.8769,VALID,360,VALID,0.535547,
2010-12-28, 02:04:04,VALID,1001.19,VALID,0,INVALID,163.716,VALID,0,VALID,23.9177,VALID,360,VALID,0.501953,
2010-12-28, 02:05:04,VALID,1001.21,VALID,0,INVALID,163.716,VALID,0,VALID,23.8982,VALID,359,VALID,0.483203,
2010-12-28, 02:06:04,VALID,1001.2,VALID,0,INVALID,163.731,VALID,0,VALID,23.8769,VALID,341,VALID,0.213672,
2010-12-28, 02:07:04,VALID,1001.21,VALID,0,INVALID,163.731,VALID,0,VALID,23.8982,VALID,340,VALID,0.491016,
2010-12-28, 02:08:04,VALID,1001.2,VALID,0,INVALID,163.731,VALID,0,VALID,23.8593,VALID,339,VALID,0.513281,
2010-12-28, 02:09:04,VALID,1001.2,VALID,0,INVALID,163.723,VALID,0,VALID,23.8398,VALID,341,VALID,0.476953,
2010-12-28, 02:10:04,VALID,1001.16,VALID,0,INVALID,163.746,VALID,0,VALID,23.838,VALID,344,VALID,0.715234,
2010-12-28, 02:11:04,VALID,1001.14,VALID,0,INVALID,163.723,VALID,0,VALID,23.8593,VALID,343,VALID,0.637109,
2010-12-28, 02:12:04,VALID,1001.17,VALID,0,INVALID,163.739,VALID,0,VALID,23.7973,VALID,3,VALID,0.501953,
2010-12-28, 02:13:04,VALID,1001.16,VALID,0,INVALID,163.716,VALID,0.100563,VALID,23.838,VALID,357,VALID,0.594531,
2010-12-28, 02:14:04,VALID,1001.15,VALID,0,INVALID,163.731,VALID,0,VALID,23.7778,VALID,355,VALID,0.536328,
2010-12-28, 02:15:04,VALID,1001.15,VALID,0,INVALID,163.746,VALID,0,VALID,23.7796,VALID,355,VALID,0.554297,
2010-12-28, 02:16:04,VALID,1001.14,VALID,0,INVALID,163.746,VALID,0.100563,VALID,23.7796,VALID,355,VALID,0.448438,
2010-12-28, 02:17:04,VALID,1001.19,VALID,0,INVALID,163.723,VALID,0.100563,VALID,23.7194,VALID,355,VALID,0.229687,
2010-12-28, 02:18:04,VALID,1001.16,VALID,0,INVALID,163.716,VALID,0.100563,VALID,23.7814,VALID,355,VALID,0.389062,
2010-12-28, 02:19:04,VALID,1001.13,VALID,0,INVALID,163.746,VALID,0,VALID,23.7583,VALID,353,VALID,0.460938,
2010-12-28, 02:20:04,VALID,1001.12,VALID,0,INVALID,163.723,VALID,0.100563,VALID,23.7973,VALID,353,VALID,0.372656,
2010-12-28, 02:21:04,VALID,1001.14,VALID,0,INVALID,163.746,VALID,0.100563,VALID,23.838,VALID,353,VALID,0.495703,
2010-12-28, 02:22:04,VALID,1001.11,VALID,0,INVALID,163.716,VALID,0,VALID,23.838,VALID,353,VALID,0.633594,
2010-12-28, 02:23:04,VALID,1001.13,VALID,0,INVALID,163.746,VALID,0,VALID,23.7991,VALID,353,VALID,0.430469,
2010-12-28, 02:24:04,VALID,1001.1,VALID,0,INVALID,163.746,VALID,0.100563,VALID,23.7991,VALID,353,VALID,0.323047,
2010-12-28, 02:25:04,VALID,1001.13,VALID,0,INVALID,163.746,VALID,0.100563,VALID,23.8167,VALID,353,VALID,0.444141,
2010-12-28, 02:26:04,VALID,1001.13,VALID,0,INVALID,163.754,VALID,0,VALID,23.8185,VALID,349,VALID,0.519531,
2010-12-28, 02:27:04,VALID,1001.14,VALID,0,INVALID,163.754,VALID,0.100563,VALID,23.8185,VALID,353,VALID,0.434375,
2010-12-28, 02:28:04,VALID,1001.16,VALID,0,INVALID,163.708,VALID,0.100563,VALID,23.8185,VALID,353,VALID,0.356641,
2010-12-28, 02:29:04,VALID,1001.19,VALID,0,INVALID,163.754,VALID,0.100563,VALID,23.8362,VALID,353,VALID,0.537891,
2010-12-28, 02:30:04,VALID,1001.17,VALID,0,INVALID,163.746,VALID,0,VALID,23.838,VALID,353,VALID,0.541406,
2010-12-28, 02:31:04,VALID,1001.18,VALID,0,INVALID,163.716,VALID,0.100563,VALID,23.8185,VALID,351,VALID,0.45,
2010-12-28, 02:32:04,VALID,1001.16,VALID,0,INVALID,163.723,VALID,0,VALID,23.8185,VALID,351,VALID,0.532422,
2010-12-28, 02:33:04,VALID,1001.14,VALID,0,INVALID,163.739,VALID,0,VALID,23.838,VALID,351,VALID,0.742188,
2010-12-28, 02:34:04,VALID,1001.14,VALID,0,INVALID,163.762,VALID,0,VALID,23.838,VALID,9,VALID,0.807813,
2010-12-28, 02:35:04,VALID,1001.08,VALID,0,INVALID,163.739,VALID,0.100563,VALID,23.8769,VALID,2,VALID,0.533203,
2010-12-28, 02:36:04,VALID,1001.1,VALID,0,INVALID,163.746,VALID,0.100563,VALID,23.8964,VALID,359,VALID,0.571484,
2010-12-28, 02:37:04,VALID,1001.1,VALID,0,INVALID,163.746,VALID,0,VALID,23.8964,VALID,356,VALID,0.55,
2010-12-28, 02:38:04,VALID,1001.08,VALID,0,INVALID,163.746,VALID,0,VALID,23.8575,VALID,359,VALID,0.436719,
2010-12-28, 02:39:04,VALID,1001.1,VALID,0,INVALID,163.746,VALID,0.100563,VALID,23.8575,VALID,2,VALID,0.59375,
2010-12-28, 02:40:04,VALID,1001.08,VALID,0,INVALID,163.739,VALID,0.100563,VALID,23.8362,VALID,2,VALID,0.405859,
2010-12-28, 02:41:04,VALID,1001.06,VALID,0,INVALID,163.731,VALID,0,VALID,23.9177,VALID,2,VALID,0.0347656,
2010-12-28, 02:42:04,VALID,1001.08,VALID,0,INVALID,163.746,VALID,0.100563,VALID,23.9353,VALID,358,VALID,0.645312,
2010-12-28, 02:43:04,VALID,1001.06,VALID,0,INVALID,163.701,VALID,0.100563,VALID,23.9919,VALID,347,VALID,0.492578,
2010-12-28, 02:44:04,VALID,1001.06,VALID,0,INVALID,163.731,VALID,0,VALID,24.0326,VALID,347,VALID,0.516016,
2010-12-28, 02:45:04,VALID,1001.05,VALID,0,INVALID,163.723,VALID,0.100563,VALID,24.0503,VALID,347,VALID,0.529297,
2010-12-28, 02:46:04,VALID,1001.02,VALID,0,INVALID,163.723,VALID,0.100563,VALID,24.0326,VALID,347,VALID,0.442187,
2010-12-28, 02:47:04,VALID,1001.05,VALID,0,INVALID,163.716,VALID,0.100563,VALID,24.0132,VALID,347,VALID,0.459375,
2010-12-28, 02:48:04,VALID,1001.01,VALID,0,INVALID,163.701,VALID,0,VALID,23.9937,VALID,347,VALID,0.507031,
2010-12-28, 02:49:04,VALID,1001.04,VALID,0,INVALID,163.716,VALID,0,VALID,23.9742,VALID,2,VALID,0.399219,
2010-12-28, 02:50:04,VALID,1001.02,VALID,0,INVALID,163.701,VALID,0.100563,VALID,23.9937,VALID,1,VALID,0.241797,
2010-12-28, 02:51:04,VALID,1001,VALID,0,INVALID,163.701,VALID,0,VALID,23.9919,VALID,1,VALID,0.322656,
2010-12-28, 02:52:04,VALID,1001.02,VALID,0,INVALID,163.716,VALID,0.100563,VALID,23.9937,VALID,1,VALID,0.549609,
2010-12-28, 02:53:04,VALID,1001,VALID,0,INVALID,163.731,VALID,0.100563,VALID,23.9353,VALID,1,VALID,0.60625,
2010-12-28, 02:54:04,VALID,1001.03,VALID,0,INVALID,163.716,VALID,0,VALID,23.9159,VALID,1,VALID,0.511719,
2010-12-28, 02:55:04,VALID,1001.01,VALID,0,INVALID,163.762,VALID,0,VALID,23.8982,VALID,1,VALID,0.366797,
2010-12-28, 02:56:04,VALID,1001.01,VALID,0,INVALID,163.754,VALID,0,VALID,23.838,VALID,1,VALID,0.598437,
2010-12-28, 02:57:04,VALID,1001.01,VALID,0,INVALID,163.746,VALID,0,VALID,23.8203,VALID,1,VALID,0.535937,
2010-12-28, 02:58:04,VALID,1001.01,VALID,0,INVALID,163.769,VALID,0,VALID,23.7601,VALID,1,VALID,0.467578,
2010-12-28, 02:59:04,VALID,1001.01,VALID,0,INVALID,163.746,VALID,0,VALID,23.7407,VALID,1,VALID,0.540234,
2010-12-28, 03:00:04,VALID,1001.03,VALID,0,INVALID,163.739,VALID,0,VALID,23.7425,VALID,1,VALID,0.658594,
2010-12-28, 03:01:04,VALID,1001.02,VALID,0,INVALID,163.762,VALID,0,VALID,23.7035,VALID,1,VALID,0.413672,
2010-12-28, 03:02:04,VALID,1001,VALID,0,INVALID,163.739,VALID,0,VALID,23.6628,VALID,1,VALID,0.457812,
2010-12-28, 03:03:04,VALID,1001.01,VALID,0,INVALID,163.746,VALID,0,VALID,23.6646,VALID,1,VALID,0.210938,
2010-12-28, 03:04:04,VALID,1001.01,VALID,0,INVALID,163.746,VALID,0,VALID,23.6646,VALID,1,VALID,0.384766,
2010-12-28, 03:05:04,VALID,1001.02,VALID,0,INVALID,163.723,VALID,0,VALID,23.6646,VALID,1,VALID,0.319922,
2010-12-28, 03:06:04,VALID,1001,VALID,0,INVALID,163.739,VALID,0,VALID,23.6434,VALID,1,VALID,0.509766,
2010-12-28, 03:07:04,VALID,1000.97,VALID,0,INVALID,163.769,VALID,0,VALID,23.6257,VALID,2,VALID,0.667578,
2010-12-28, 03:08:04,VALID,1000.97,VALID,0,INVALID,163.739,VALID,0,VALID,23.6257,VALID,4,VALID,0.510547,
2010-12-28, 03:09:04,VALID,1000.93,VALID,0,INVALID,163.739,VALID,0,VALID,23.6434,VALID,1,VALID,0.465625,
2010-12-28, 03:10:04,VALID,1000.93,VALID,0,INVALID,163.731,VALID,0,VALID,23.6823,VALID,351,VALID,0.565234,
2010-12-28, 03:11:04,VALID,1000.94,VALID,0,INVALID,163.769,VALID,0,VALID,23.6823,VALID,359,VALID,0.584766,
2010-12-28, 03:12:04,VALID,1000.92,VALID,0,INVALID,163.746,VALID,0,VALID,23.6823,VALID,359,VALID,0.555859,
2010-12-28, 03:13:04,VALID,1000.91,VALID,0,INVALID,163.746,VALID,0,VALID,23.6823,VALID,359,VALID,0.442187,
2010-12-28, 03:14:04,VALID,1000.88,VALID,0,INVALID,163.769,VALID,0.100563,VALID,23.661,VALID,359,VALID,0.352344,
2010-12-28, 03:15:04,VALID,1000.91,VALID,0,INVALID,163.769,VALID,0,VALID,23.6628,VALID,359,VALID,0.379687,
2010-12-28, 03:16:04,VALID,1000.89,VALID,0,INVALID,163.769,VALID,0.100563,VALID,23.6628,VALID,359,VALID,0.304688,
2010-12-28, 03:17:04,VALID,1000.88,VALID,0,INVALID,163.762,VALID,0,VALID,23.6823,VALID,359,VALID,0.5125,
2010-12-28, 03:18:04,VALID,1000.87,VALID,0,INVALID,163.723,VALID,0,VALID,23.6841,VALID,359,VALID,0.584375,
2010-12-28, 03:19:04,VALID,1000.89,VALID,0,INVALID,163.731,VALID,0,VALID,23.6823,VALID,359,VALID,0.335547,
2010-12-28, 03:20:04,VALID,1000.87,VALID,0,INVALID,163.739,VALID,0,VALID,23.6628,VALID,359,VALID,0.677344,
2010-12-28, 03:21:04,VALID,1000.88,VALID,0,INVALID,163.762,VALID,0,VALID,23.6026,VALID,359,VALID,0.549609,
2010-12-28, 03:22:04,VALID,1000.9,VALID,0,INVALID,163.784,VALID,0,VALID,23.6044,VALID,359,VALID,0.617969,
2010-12-28, 03:23:04,VALID,1000.89,VALID,0,INVALID,163.754,VALID,0,VALID,23.6257,VALID,359,VALID,0.586719,
2010-12-28, 03:24:04,VALID,1000.9,VALID,0,INVALID,163.746,VALID,0,VALID,23.6044,VALID,359,VALID,0.465234,
2010-12-28, 03:25:04,VALID,1000.89,VALID,0,INVALID,163.769,VALID,0,VALID,23.585,VALID,359,VALID,0.56875,
2010-12-28, 03:26:04,VALID,1000.9,VALID,0,INVALID,163.746,VALID,0,VALID,23.5655,VALID,359,VALID,0.482031,
2010-12-28, 03:27:04,VALID,1000.91,VALID,0,INVALID,163.754,VALID,0,VALID,23.5655,VALID,359,VALID,0.323047,
2010-12-28, 03:28:04,VALID,1000.9,VALID,0,INVALID,163.739,VALID,0,VALID,23.5655,VALID,359,VALID,0.448438,
2010-12-28, 03:29:04,VALID,1000.92,VALID,0,INVALID,163.731,VALID,0.100563,VALID,23.5248,VALID,359,VALID,0.580859,
2010-12-28, 03:30:04,VALID,1000.94,VALID,0,INVALID,163.754,VALID,0,VALID,23.546,VALID,359,VALID,0.546875,
2010-12-28, 03:31:04,VALID,1000.93,VALID,0,INVALID,163.769,VALID,0,VALID,23.5071,VALID,359,VALID,0.545313,
2010-12-28, 03:32:04,VALID,1000.93,VALID,0,INVALID,163.762,VALID,0,VALID,23.5284,VALID,359,VALID,0.683203,
2010-12-28, 03:33:04,VALID,1000.96,VALID,0,INVALID,163.762,VALID,0,VALID,23.5266,VALID,359,VALID,0.646875,
2010-12-28, 03:34:04,VALID,1000.95,VALID,0,INVALID,163.807,VALID,0,VALID,23.5071,VALID,359,VALID,0.566016,
2010-12-28, 03:35:04,VALID,1000.98,VALID,0,INVALID,163.762,VALID,0,VALID,23.5266,VALID,359,VALID,0.547656,